Zurück zum Katalog

KUIPER-00629

AktivKommunikationLEO
NORAD 69783·PAYLOAD·🇺🇸 United States

Gestartet Jul 2, 2026 von Cape Canaveral Space Force Station

Loading…

Nächste Überflüge (nächste 24 Stunden)

TLE

AktuellSource: CelesTrak SupGP

Epoche: Sep 14, 2026, 21:18 UTC

1 69783C 26151W   26257.88761574  .00002234  00000+0  29246-3 0  2579
2 69783  51.9003 261.4520 0000653  60.7221 169.5702 14.79925302    18

Verfolge KUIPER-00629 in Echtzeit mit AllMySat

Download on the App Store